This demonstration page uses our WeatherBlox Daily Observations layout. Learn more.

Left ArrowRight Arrow

39.92423, -83.80882

Hourly Observations for May 6, 2021

Temp ( °F °C ) Dew Point ( °F °C ) Humidity (%) Winds ( mph kmh ) Pressure ( in mb ) Visibility ( mi km ) Precip ( " mm )
12:56 am 00:56 Clear 43 6.1 43 6.1 100 100 S 3 6 30.15 1021 10 16.0934 N/A
1:56 am 01:56 Clear 42 5.6 42 5.6 100 100 SW 3 6 30.15 1021 10 16.0934 N/A
2:56 am 02:56 Clear 40 4.4 40 4.4 100 100 N N/A 30.15 1021 10 16.0934 N/A
3:56 am 03:56 Clear 39 3.9 39 3.9 100 100 N N/A 30.15 1021 10 16.0934 N/A
4:56 am 04:56 Clear 37 3 N/A N/A N N/A 30.14 1021 10 16.0934 N/A
5:56 am 05:56 Clear 37 3 N/A N/A N N/A 30.15 1021 10 16.0934 N/A
6:56 am 06:56 Sunny 36 2 N/A N/A E 5 7 30.16 1021 10 16.0934 N/A
7:56 am 07:56 Sunny 45 7 N/A N/A N N/A 30.16 1021 10 16.0934 N/A
8:56 am 08:56 Sunny 49 9.4 42 5.6 77 77 S 9 15 30.16 1022 10 16.0934 N/A
9:56 am 09:56 Sunny 52 11.1 43 6.1 72 72 S 12 19 30.16 1022 10 16.0934 N/A
10:56 am 10:56 Sunny 55 12.8 44 6.7 67 67 S 8 13 30.15 1021 10 16.0934 N/A
11:56 am 11:56 Mostly Cloudy 57 13.9 41 5 55 55 S 7 11 30.13 1020 10 16.0934 N/A
12:56 pm 12:56 Mostly Cloudy 59 15 40 4.4 49 49 S 7 11 30.11 1020 10 16.0934 N/A
1:56 pm 13:56 Cloudy 58 14.4 41 5 53 53 SW 14 22 30.09 1019 10 16.0934 N/A
2:56 pm 14:56 Cloudy 59 15 39 3.9 48 48 SW 9 15 30.06 1018 10 16.0934 N/A
3:56 pm 15:56 Cloudy 59 15 39 3.9 48 48 WSW 8 13 30.04 1017 10 16.0934 N/A
4:56 pm 16:56 Cloudy 57 13.9 41 5 55 55 WNW 16 26 30.03 1017 10 16.0934 N/A
5:56 pm 17:56 Cloudy 58 14.4 42 5.6 56 56 W 5 7 30.03 1017 10 16.0934 N/A
6:56 pm 18:56 Cloudy 56 13.3 45 7.2 67 67 NW 6 9 30.02 1017 10 16.0934 N/A
7:56 pm 19:56 Cloudy with Light Rain 52 11.1 49 9.4 89 89 NNW 8 13 30.01 1016 10 16.0934 N/A
8:56 pm 20:56 Cloudy with Light Rain 50 10 50 10 100 100 N 6 9 30 1016 10 16.0934 N/A
9:56 pm 21:56 Cloudy with Light Rain 48 9 N/A N/A NNW 3 6 30.01 1016 8 12.87472 N/A
10:56 pm 22:56 Cloudy with Rain 48 9 N/A N/A S 5 7 30.01 1016 6 9.65604 0.09 2.286
11:56 pm 23:56 Cloudy with Rain 48 9 N/A N/A SSE 3 6 29.99 1016 6 9.65604 0.06 1.524

Powered by AerisWeather